TimeEDT,TemperatureF,Dew PointF,Humidity,Sea Level PressureIn,VisibilityMPH,Wind Direction,Wind SpeedMPH,Gust SpeedMPH,PrecipitationIn,Events,Conditions,WindDirDegrees,DateUTC
12:53 AM,43.0,39.0,86,30.33,10.0,Calm,Calm,-,N/A,,Overcast,0,2013-04-28 04:53:00
1:53 AM,41.0,37.9,89,30.32,10.0,Calm,Calm,-,N/A,,Partly Cloudy,0,2013-04-28 05:53:00
2:53 AM,39.9,37.9,93,30.31,10.0,Calm,Calm,-,N/A,,Partly Cloudy,0,2013-04-28 06:53:00
3:53 AM,37.9,36.0,93,30.31,8.0,Calm,Calm,-,N/A,,Partly Cloudy,0,2013-04-28 07:53:00
4:53 AM,37.0,35.1,93,30.30,9.0,East,3.5,-,N/A,,Clear,100,2013-04-28 08:53:00
5:53 AM,39.0,37.0,93,30.30,3.0,Calm,Calm,-,N/A,,Clear,0,2013-04-28 09:53:00
6:53 AM,43.0,41.0,93,30.30,9.0,Calm,Calm,-,N/A,,Clear,0,2013-04-28 10:53:00
7:53 AM,50.0,43.0,77,30.33,10.0,Calm,Calm,-,N/A,,Clear,0,2013-04-28 11:53:00
9:53 AM,52.0,43.0,71,30.35,10.0,SSE,6.9,-,N/A,,Clear,160,2013-04-28 13:53:00
10:53 AM,55.0,46.0,72,30.35,10.0,SSE,9.2,-,N/A,,Clear,160,2013-04-28 14:53:00
11:53 AM,54.0,43.0,66,30.34,10.0,SSE,9.2,-,N/A,,Clear,150,2013-04-28 15:53:00
12:53 PM,55.9,36.0,47,30.32,10.0,South,9.2,-,N/A,,Clear,170,2013-04-28 16:53:00
1:53 PM,57.9,37.0,46,30.32,10.0,SE,11.5,-,N/A,,Clear,140,2013-04-28 17:53:00
2:53 PM,57.0,36.0,45,30.31,10.0,South,10.4,-,N/A,,Clear,170,2013-04-28 18:53:00
3:53 PM,55.9,35.1,45,30.29,10.0,South,11.5,-,N/A,,Clear,170,2013-04-28 19:53:00
4:53 PM,55.9,35.1,45,30.28,10.0,South,10.4,-,N/A,,Clear,180,2013-04-28 20:53:00
5:53 PM,54.0,26.1,34,30.29,10.0,South,9.2,-,N/A,,Clear,190,2013-04-28 21:53:00
6:53 PM,50.0,37.9,63,30.28,10.0,South,6.9,-,N/A,,Clear,170,2013-04-28 22:53:00
7:53 PM,48.9,42.1,77,30.27,10.0,South,4.6,-,N/A,,Clear,170,2013-04-28 23:53:00
8:53 PM,48.0,44.1,86,30.27,10.0,SSE,5.8,-,N/A,,Clear,150,2013-04-29 00:53:00
9:53 PM,48.0,45.0,89,30.28,10.0,SSE,5.8,-,N/A,,Clear,160,2013-04-29 01:53:00
10:53 PM,48.0,45.0,89,30.28,10.0,South,5.8,-,N/A,,Clear,180,2013-04-29 02:53:00
11:53 PM,48.0,44.1,86,30.29,10.0,South,4.6,-,N/A,,Clear,190,2013-04-29 03:53:00